Lid_Strength_Index
1 1 1 1 1 1 1 2 4 6 5 3 3 1 0 0 0 1 1 2 2 3 3 2 2 2 1 1 1 1 0 -0 -2 -2 -2 -2 -2 -2
2 1 1 2 1 1 1 1 2 3 5 2 2 1 1 0 0 1 1 2 3 3 2 3 3 3 3 2 2 1 -1 -1 -1 -1 -1 -1 -2 -2
1 2 2 1 1 1 1 1 2 2 4 3 2 1 1 1 1 1 1 2 2 3 3 3 3 3 3 1 1 1 0 0 0 0 0 0 0 0
1 1 2 2 2 1 1 1 2 1 3 4 2 2 2 1 2 2 1 1 1 2 3 3 3 2 2 2 2 2 3 3 3 3 3 2 1 1
1 1 1 1 2 1 1 2 1 1 2 3 3 2 2 2 2 3 3 2 2 2 3 3 2 2 2 3 3 4 4 5 5 5 5 4 4 4
1 1 1 1 2 1 1 2 1 2 2 2 3 3 3 3 3 4 4 3 2 2 2 2 2 3 3 4 4 3 5 6 6 6 6 6 7 7
1 1 1 1 3 2 1 1 2 2 3 3 4 4 5 3 3 3 3 3 2 0 1 2 2 3 3 4 4 4 5 5 7 7 8 8 8 8
2 2 2 3 4 5 5 5 3 3 4 4 5 4 5 4 4 3 3 2 3 1 1 3 3 4 4 4 5 6 7 7 7 8 8 8 8 9
1 2 1 2 3 2 6 6 6 6 5 3 3 3 4 4 3 4 2 2 2 2 1 4 3 4 4 6 7 7 7 8 8 8 8 9 9 9
1 1 2 2 3 3 3 4 4 3 3 2 1 2 2 2 0 1 1 2 3 4 2 4 5 6 5 6 7 7 8 9 9 9 9 9 9 9
1 2 1 2 8 8 3 4 5 5 9 9 8 7 7 6 3 1 2 2 4 5 4 4 5 5 5 6 6 8 8 10 10 10 9 9 9 9
2 3 6 3 10 9 4 4 3 4 5 4 4 6 6 6 6 1 2 4 6 5 4 5 5 4 5 5 6 7 7 9 10 10 10 9 9 8
2 2 2 9 10 10 7 3 4 5 7 5 6 6 5 4 4 4 3 4 5 5 4 4 4 4 5 6 7 8 9 9 9 9 10 10 9 9
2 2 4 10 11 11 7 9 10 7 5 5 5 5 4 5 6 6 5 6 6 5 4 4 5 6 7 10 10 10 9 9 10 10 9 9 9 9
2 5 11 11 10 9 9 10 8 4 4 4 4 4 4 6 6 7 7 7 8 8 7 6 7 8 9 10 11 12 11 10 10 10 9 9 9 8
9 9 9 8 8 7 7 7 4 4 4 4 4 5 6 6 6 6 8 9 10 9 8 8 8 8 11 11 12 12 11 12 11 10 10 9 9 8
8 8 7 7 6 6 6 5 4 4 4 5 5 6 6 6 7 7 8 9 9 10 10 10 9 9 9 10 12 12 12 12 11 11 11 10 9 8
7 7 7 6 6 6 6 6 4 5 4 5 5 5 6 7 7 8 8 9 11 10 11 11 11 12 12 11 10 12 12 12 11 11 11 11 11 9
5 6 6 6 6 6 6 6 5 4 5 5 5 6 6 6 8 8 9 10 11 11 11 11 12 12 13 14 12 11 13 12 12 12 11 11 11 9
6 6 6 6 6 6 7 7 7 6 7 8 8 8 7 7 8 9 10 10 11 11 11 11 12 12 13 13 13 12 13 12 12 12 12 10 9 9
7 6 7 7 8 8 7 7 7 7 7 8 8 9 9 9 9 9 10 13 13 12 12 12 11 14 11 12 13 13 12 12 11 12 11 11 11 10
6 6 6 7 8 8 8 7 6 7 8 7 8 8 9 8 9 10 11 12 12 12 11 11 11 12 12 14 14 15 14 12 11 11 10 10 11 12
5 5 6 6 6 6 7 7 6 7 7 7 8 8 9 9 9 10 12 12 12 13 13 13 13 12 14 14 15 15 15 13 12 12 10 10 9 9